Showing default

LEMUR 2 DELOITTE-1, 63259

Orbit data source: Space-Track

LEMUR 2 DELOITTE-1, 63259 is an American payload satellite in SSO that was launched on Sat, 15 Mar 2025 UTC via an FALCON 9 launch vehicle from the Air Force Western Test Range (AFWTR). Payload-class satellites include a variety of spacecraft equipped with specific instruments for various scientific and technological missions. These include communications satellites like Starlink; space stations such as the ISS; scientific satellites like the Hubble; Earth observation satellites from companies like Planet Labs, Umbra, and HawkEye 360; GPS; miniature CubeSats for education and research; and military/defense satellites.

Loading next visibility...
Identifier
63259, 2025-052BB
Orbit
SSO
Country
Flag of USUS
Related business
Manufacturer
Spire/Glasgow
Mission
Operational Commercial Com/MetRO
Bus & Motor
CUBESAT 6U, Unknown motor
Mass
10 kg wet, 10 kg dry
Launch date (UTC)
2025-03-15 (2 years ago)
Launch vehicle
FALCON 9
Launch site
Air Force Western Test Range (AFWTR)
Object type
Payload
Rocket body
Debris
Shape & HBR
Box, 0.2 m
Radar Cross Section
0.080 m², Medium (>0.1 m² and < 1m²)

Expand to show TLE details & history
Last TLE update: 18 hours ago

TLE from 18 hours ago
0 LEMUR 2 DELOITTE-1
1 63259U 25052BB  26265.64868587  .00003089  00000-0  26539-3 0  9990
2 63259  97.6769 156.8760 0003105 108.9375 251.2184 14.98160401 83284
Epoch: 2026-09-22T15:34Z
TLE epoch observation values (Epoch: 2026-09-22T15:34:06.459Z)
Latitude
-0.00003°
Longitude
-78.16205°
Altitude
576.329 km
Speed
7.572 km/s
True Right ascension
10h 27m 30s
True Declination
0° 00' 00"
Sunlit
Object was in daylight at epoch
Visualization orbit readout
Latitude
Unknown
Longitude
Unknown
Altitude
Unknown
Speed
Unknown
Apparent Right ascension
Unknown
Apparent Declination
Unknown
Sunlit
N/A
Visualization observer readout
Local Sidereal Time
02:14:45
Azimuth
Unknown
Elevation
Unknown
Doppler factor
Unknown
Orbital elements
Apogee altitude
571.744 km
Perigee altitude
567.43 km
Semi-major axis
6,947.724 km
Eccentricity
0.00031
Inclination
97.6769°
RAAN
156.876°
Arg. of periapsis
108.9375°
True anomaly
251.18472°
Mean anomaly
251.2184°
Eccentric anomaly
251.20156°
Mean motion
3.74783 °/min
Orbital period
96.06 mins
BSTAR
0.00026539
Loading maneuver chart data...
Computing Atmospheric mass density...
Loading historical data...
Loading historical data...
Loading historical data...
Loading historical data...
Loading historical data...
Loading historical data...
Loading historical data...

Documentation

Showing up to 5 results
|